{"data":{"norad_id":43437,"intl_designator":"2018-039A","name":"SENTINEL-3B","alt_names":[],"object_type":"PAYLOAD","status":"ACTIVE","operator":null,"country":"ESA","launch_date":"2018-04-25","launch_site_code":"PLMSC","launch_vehicle":null,"mission":null,"orbit_class":"UNKNOWN","rcs_meters":null,"size_class":null,"mass_kg":null,"dimensions":null,"purposes":["earth_obs"],"wikipedia_slug":null,"has_3d_model":false,"image_url":null,"decayed_at":null,"tle_current":{"epoch":"2026-05-25T02:48:26.569152Z","epoch_age_seconds":58886,"freshness":"FRESH","line1":"1 43437U 18039A   26145.11697418  .00000034  00000+0  32259-4 0  9998","line2":"2 43437  98.6253 212.9791 0001189  74.1690 285.9622 14.26733958420832","mean_motion":14.26733958,"eccentricity":0.0001189,"inclination_deg":98.6253,"raan_deg":212.9791,"arg_perigee_deg":74.169,"mean_anomaly_deg":285.9622,"bstar":3.2259e-5,"rev_number":42083,"period_min":100.92981890041,"perigee_km":801.81490687287,"apogee_km":803.52250246944,"semimajor_km":7180.8057046712,"source":"CELESTRAK","updated_at":"2026-05-25T13:38:12.829999Z"}}}